Regional Weather Roundup
Issued by NWS

Home | Current Version | Previous Version | Graphics & Text | Print | Product List | Glossary On
Versions: 1 2 3 4 5 6 7 8 9 10 11 12 13 14 15 16 17 18 19 20 21 22 23 24 25 26 27 28 29 30 31 32 33 34 35 36 37 38 39 40 41 42 43 44 45 46 47 48 49 50
858
ASUS45 KCYS 281210
RWRWY

WYOMING REGIONAL WEATHER ROUNDUP
NATIONAL WEATHER SERVICE CHEYENNE WY
600 AM MDT FRI APR 28 2017

NOTE:  "FAIR" INDICATES FEW OR NO CLOUDS BELOW 12,000 FEET
WITH NO SIGNIFICANT WEATHER AND/OR OBSTRUCTIONS TO VISIBILITY.

WYZ001-281300-
YELLOWSTONE NATIONAL PARK

CITY           SKY/WX    TMP DP  RH WIND       PRES   REMARKS
LK YELLOWSTONE   N/A     22  19  89 CALM      29.79S
6HR MIN TEMP:  22; 6HR MAX TEMP:  25; 6HR PCP:  0.01;

W YELLOWSTONE  NOT AVBL

$$
WYZ002>013-054>058-071-098>099-281300-
NORTHERN WYOMING

CITY           SKY/WX    TMP DP  RH WIND       PRES   REMARKS
JACKSON        CLOUDY    28  28 100 CALM      29.77S
CODY           LGT SNOW  33  31  92 N22G30    29.78R FOG     WCI  21
GREYBULL       CLOUDY    39  31  72 NW23G33   29.71R WCI  28
6HR MIN TEMP:  38; 6HR MAX TEMP:  41;

WORLAND        CLOUDY    38  34  85 N8        29.71R WCI  32
6HR MIN TEMP:  38; 6HR MAX TEMP:  39;

SHERIDAN       FLURRIES  33  32  96 W9        29.83R WCI  25
6HR MIN TEMP:  32; 6HR MAX TEMP:  34; 6HR PCP:  0.32;

BUFFALO        LGT SNOW  32  29  88 NW18G29   29.78R VSB 3/4 WCI  20
6HR MIN TEMP:  32; 6HR MAX TEMP:  34; 6HR PCP:  0.27;

GILLETTE       SNOW      31  31 100 N9        29.76R WCI  23
6HR MIN TEMP:  31; 6HR MAX TEMP:  33; 6HR PCP:  0.40;

HULETT         CLOUDY    34  32  93 NE12      29.79R WCI  25
NEWCASTLE      PTSUNNY   34  34 100 W7        29.73R WCI  28

$$
WYZ014>020-022>026-101>103-281300-
CENTRAL WYOMING

CITY           SKY/WX    TMP DP  RH WIND       PRES   REMARKS
BIG PINEY      CLOUDY    30  19  63 NW8       29.71S WCI  22
6HR MIN TEMP:  29; 6HR MAX TEMP:  30;

PINEDALE       CLOUDY    28  23  80 NW15      29.71S WCI  17
DUBOIS         CLOUDY    30  21  69 NW12      29.68S WCI  21
LANDER         LGT SNOW  31  31 100 NW7       29.70R FOG     WCI  24
6HR MIN TEMP:  31; 6HR MAX TEMP:  35; 6HR PCP:  0.10;

RIVERTON       LGT SNOW  32  32 100 NW5       29.71R VSB 3/4 WCI  27
6HR MIN TEMP:  32; 6HR MAX TEMP:  33; 6HR PCP:  0.30;

CASPER         LGT SNOW  31  30  96 N13       29.68R FOG     WCI  21
6HR MIN TEMP:  31; 6HR MAX TEMP:  32; 6HR PCP:  0.05;

DOUGLAS        LGT SNOW  32  30  92 NE10      29.68R FOG     WCI  24
6HR MIN TEMP:  32; 6HR MAX TEMP:  35; 6HR PCP: TRACE;


$$
WYZ021-027>030-104>119-281300-
SOUTHERN WYOMING

CITY           SKY/WX    TMP DP  RH WIND       PRES   REMARKS
EVANSTON       FAIR      19  15  84 SW7       29.79S WCI  10
6HR MIN TEMP:  19; 6HR MAX TEMP:  26;

FORT BRIDGER   CLOUDY    25  21  85 W15       29.80S WCI  12
ROCK SPRINGS   LGT SNOW  27  21  78 W21       29.72S WCI  13
6HR MIN TEMP:  27; 6HR MAX TEMP:  31; 6HR PCP: TRACE;

DIXON          FLURRIES  30  22  71 SW6       29.76S WCI  24
RAWLINS        LGT SNOW  28  24  85 W18       29.66S FOG     WCI  15
6HR MIN TEMP:  28; 6HR MAX TEMP:  30; 6HR PCP:  0.16;

SARATOGA       CLOUDY    30  23  74 SW14      29.69R WCI  20
LARAMIE        FAIR      25  18  74 SW13      29.62R WCI  14
6HR MIN TEMP:  24; 6HR MAX TEMP:  29;

CHEYENNE       FAIR      30  23  75 W6        29.62S WCI  24
6HR MIN TEMP:  29; 6HR MAX TEMP:  35;

TORRINGTON     LGT SNOW  33  32  96 E12       29.63R FOG     WCI  24
6HR MIN TEMP:  33; 6HR MAX TEMP:  41; 6HR PCP:  0.04;

PINE BLUFFS    FAIR      32  28  86 CALM      29.63R

$$




USA.gov is the U.S. government's official web portal to all federal, state and local government web resources and services.